NOAA 16 DEB, 41363

Orbit data source: Space-Track

NOAA 16 DEB, 41363 is space debris in SSO originally from a launch on Thu, 21 Sep 2000 UTC launched from the Air Force Western Test Range (AFWTR). Debris objects in space refer to the collection of defunct objects orbiting the Earth. Examples of debris include non-operational satellites, rocket bodies, and fragments generated from explosions, collisions, or faulty payload assembly.

Loading next visibility...
Identifier
41363, 2000-055JG
Orbit
SSO
Country
Flag of USUS
Related business
Manufacturer
Unknown
Mission
Spacecraft
Bus & Motor
Unknown
Mass
Unknown
Launch date (UTC)
2000-09-21 (26 years ago)
Launch vehicle
Unknown
Launch site
Air Force Western Test Range (AFWTR)
Object type
Payload
Rocket body
Debris
Shape & HBR
Unknown shape, 0.1 m
Radar Cross Section
Small (<0.1 m²)

Expand to show TLE details & history
Last TLE update: 3 days ago

TLE from 3 days ago
0 NOAA 16 DEB
1 41363U 00055JG  26124.29599071  .00030170  00000-0  33136-2 0  9993
2 41363  98.8987 332.8136 0011930 148.9347 211.2574 14.87547090534575
Epoch: 2026-05-04T07:06Z
TLE epoch observation values (Epoch: 2026-05-04T07:06:13.597Z)
Latitude
0.00002°
Longitude
4.06971°
Altitude
615.729 km
Speed
7.547 km/s
True Right ascension
22h 11m 15s
True Declination
0° 00' 00"
Sunlit
Object was in daylight at epoch
Visualization orbit readout
Latitude
Unknown
Longitude
Unknown
Altitude
Unknown
Speed
Unknown
Apparent Right ascension
Unknown
Apparent Declination
Unknown
Sunlit
N/A
Visualization observer readout
Local Sidereal Time
04:44:40
Azimuth
Unknown
Elevation
Unknown
Doppler factor
Unknown
Orbital elements
Apogee altitude
611.009 km
Perigee altitude
594.353 km
Semi-major axis
6,980.818 km
Eccentricity
0.00119
Inclination
98.8987°
RAAN
332.8136°
Arg. of periapsis
148.9347°
True anomaly
211.18655°
Mean anomaly
211.2574°
Eccentric anomaly
211.22197°
Mean motion
3.72121 °/min
Orbital period
96.74 mins
BSTAR
0.0033136
Loading maneuver chart data...
Computing Atmospheric mass density...
Loading historical data...
Loading historical data...
Loading historical data...
Loading historical data...
Loading historical data...
Loading historical data...
Loading historical data...

Documentation

Showing up to 5 results
|